TimeMDT,TemperatureF,Dew PointF,Humidity,Sea Level PressureIn,VisibilityMPH,Wind Direction,Wind SpeedMPH,Gust SpeedMPH,PrecipitationIn,Events,Conditions,WindDirDegrees,DateUTC
12:00 AM,-18,-22,71,30.43,,North,5.8,,,,,0,2013-03-18 06:00:00
12:00 AM,-0.4,-4.0,85,30.16,9.0,WSW,4.6,-,N/A,,Clear,240,2013-03-18 06:00:00
1:00 AM,-0.4,-4.0,85,30.14,9.0,SSW,8.1,-,N/A,,Clear,210,2013-03-18 07:00:00
2:00 AM,-0.4,-4.0,85,30.13,9.0,SSW,3.5,-,N/A,,Clear,200,2013-03-18 08:00:00
3:00 AM,-2.2,-5.8,85,30.10,9.0,SSE,3.5,-,N/A,,Clear,150,2013-03-18 09:00:00
4:00 AM,-0.4,-4.0,85,30.06,9.0,East,2.3,-,N/A,,Clear,90,2013-03-18 10:00:00
5:00 AM,1.4,-2.2,85,30.02,9.0,NE,3.5,-,N/A,,Clear,40,2013-03-18 11:00:00
6:00 AM,-12,-16,71,30.41,,South,6.9,,,,,180,2013-03-18 12:00:00
6:00 AM,1.4,-2.2,85,29.98,9.0,East,4.6,-,N/A,,Partly Cloudy,100,2013-03-18 12:00:00
7:00 AM,3.2,-0.4,85,29.96,30.0,East,3.5,-,N/A,,Mostly Cloudy,80,2013-03-18 13:00:00
8:00 AM,5.0,1.4,85,29.94,30.0,Calm,Calm,-,N/A,,Mostly Cloudy,0,2013-03-18 14:00:00
9:00 AM,8.6,5.0,85,29.92,30.0,NE,4.6,-,N/A,,Mostly Cloudy,40,2013-03-18 15:00:00
10:00 AM,15.8,10.4,79,29.90,30.0,Calm,Calm,-,N/A,,Mostly Cloudy,0,2013-03-18 16:00:00
11:00 AM,26.6,17.6,69,29.88,30.0,SW,8.1,-,N/A,,Mostly Cloudy,220,2013-03-18 17:00:00
12:00 PM,4,2,84,30.51,,South,18.4,,,,,190,2013-03-18 18:00:00
12:00 PM,30.2,21.2,69,29.86,30.0,SW,16.1,21.9,N/A,,Mostly Cloudy,220,2013-03-18 18:00:00
1:00 PM,37.4,23.0,56,29.86,30.0,West,13.8,20.7,N/A,,Mostly Cloudy,270,2013-03-18 19:00:00
2:00 PM,35.6,19.4,52,29.88,30.0,NW,18.4,-,N/A,,Mostly Cloudy,310,2013-03-18 20:00:00
3:00 PM,33.8,19.4,56,29.90,30.0,NNW,16.1,24.2,N/A,,Mostly Cloudy,330,2013-03-18 21:00:00
4:00 PM,28.4,17.6,64,29.96,30.0,NW,19.6,-,N/A,,Mostly Cloudy,320,2013-03-18 22:00:00
5:00 PM,21.2,14.0,74,30.01,30.0,NNW,15.0,21.9,N/A,,Mostly Cloudy,330,2013-03-18 23:00:00
6:00 PM,11,9,88,30.63,,SSW,5.8,,,,,210,2013-03-19 00:00:00
6:00 PM,19.4,10.4,68,30.06,30.0,North,11.5,-,N/A,,Mostly Cloudy,10,2013-03-19 00:00:00
7:00 PM,15.8,10.4,79,30.10,30.0,NNW,17.3,-,N/A,,Overcast,340,2013-03-19 01:00:00
8:00 PM,14.0,8.6,79,30.15,15.0,NNW,8.1,-,N/A,,Overcast,330,2013-03-19 02:00:00
9:00 PM,12.2,6.8,79,30.17,15.0,NNW,5.8,-,N/A,,Overcast,340,2013-03-19 03:00:00
10:00 PM,12.2,6.8,79,30.18,9.0,NNW,3.5,-,N/A,,Overcast,340,2013-03-19 04:00:00
11:00 PM,12.2,6.8,79,30.18,9.0,WNW,5.8,-,N/A,,Overcast,300,2013-03-19 05:00:00